Queralbs





Hora UTC 09:05
Temperatura 9.1 ºC
Humitat 33.0 %
Pressió 1026.7 hPa
Pluja 0.0 mm
Velocitat vent 3.2 km/h
Direcció vent E
Radiació solar 424.0 W/m²

Dades diàries 2020-02-20



Hora UTC (hivern +1h; estiu +2h)
Temperatura (ºC) Humitat (%) Pressió (hPa) Velocitat vent (km/h) Precipitació (mm) Radiació solar (W/m²)
Hora UTC Aire Humitat Pressió Vel. Dir. Vel. Max Dir. Intent. màx 5 min. Rad. Sol.
00:05 0.8 68.0 1028.0 1.6 SW 3.2 0.0 0.0
00:10 0.0
00:15 0.8 68.0 1028.0 0.0 SW 3.2 0.0 0.0
00:20 0.7 68.0 1028.0 1.6 SW 3.2 0.0 0.0
00:25 0.6 68.0 1028.0 1.6 SW 3.2 0.0 0.0
00:30 0.6 68.0 1028.1 0.0 SW 3.2 0.0 0.0
00:35 0.6 68.0 1028.1 0.0 SW 3.2 0.0 0.0
00:40 0.6 68.0 1028.1 1.6 SW 3.2 0.0 0.0
00:45 0.4 68.0 1027.9 0.0 SW 3.2 0.0 0.0
00:50 0.4 68.0 1027.8 1.6 SW 3.2 0.0 0.0
00:55 0.3 68.0 1027.8 0.0 SW 3.2 0.0 0.0
01:00 0.4 68.0 1027.6 1.6 SW 3.2 0.0 0.0
01:05 0.6 67.0 1027.5 3.2 NW 4.8 0.0 0.0
01:10 0.0
01:15 0.7 66.0 1027.5 0.0 SW 4.8 0.0 0.0
01:20 0.8 66.0 1027.4 0.0 SW 3.2 0.0 0.0
01:25 0.7 65.0 1027.3 1.6 SW 1.6 0.0 0.0
01:30 0.6 65.0 1027.2 1.6 SW 1.6 0.0 0.0
01:35 0.6 65.0 1027.2 0.0 SW 1.6 0.0 0.0
01:40 0.4 65.0 1027.3 0.0 SW 1.6 0.0 0.0
01:45 0.3 65.0 1027.2 0.0 SW 1.6 0.0 0.0
01:50 0.1 66.0 1027.1 0.0 SW 1.6 0.0 0.0
01:55 0.0 66.0 1027.1 0.0 SW 1.6 0.0 0.0
02:00 -0.1 66.0 1027.1 0.0 SW 1.6 0.0 0.0
02:05 -0.1 66.0 1027.0 0.0 SW 1.6 0.0 0.0
02:10 0.0
02:15 0.1 65.0 1027.0 0.0 SW 0.0 0.0 0.0
02:20 0.1 66.0 1027.1 0.0 SW 1.6 0.0 0.0
02:25 0.2 65.0 1026.9 3.2 SW 4.8 0.0 0.0
02:30 0.3 63.0 1026.9 0.0 NNW 4.8 0.0 0.0
02:35 0.3 63.0 1026.7 1.6 N 4.8 0.0 0.0
02:40 0.4 62.0 1026.7 1.6 N 4.8 0.0 0.0
02:45 0.3 63.0 1026.6 0.0 WSW 4.8 0.0 0.0
02:50 0.3 63.0 1026.6 3.2 WSW 3.2 0.0 0.0
02:55 0.4 62.0 1026.6 0.0 WSW 3.2 0.0 0.0
03:00 0.5 61.0 1026.3 0.0 WSW 1.6 0.0 0.0
03:05 0.5 60.0 1026.3 0.0 WSW 1.6 0.0 0.0
03:05 0.5 60.0 1026.3 0.0 WSW 1.6 0.0 0.0
03:15 0.2 61.0 1026.5 0.0 WSW 1.6 0.0 0.0
03:20 0.1 60.0 1026.2 1.6 WSW 3.2 0.0 0.0
03:25 0.1 60.0 1026.3 0.0 WSW 3.2 0.0 0.0
03:30 0.1 60.0 1026.2 0.0 WSW 3.2 0.0 0.0
03:35 0.1 60.0 1026.1 1.6 WSW 1.6 0.0 0.0
03:40 0.1 58.0 1026.1 1.6 WSW 1.6 0.0 0.0
03:45 0.1 58.0 1026.2 0.0 WSW 1.6 0.0 0.0
03:50 0.1 58.0 1026.1 0.0 WSW 0.0 0.0 0.0
03:55 0.2 57.0 1026.1 1.6 WSW 1.6 0.0 0.0
04:00 0.2 56.0 1026.0 0.0 WSW 1.6 0.0 0.0
04:05 0.3 57.0 1026.0 1.6 WSW 3.2 0.0 0.0
04:05 0.2 56.0 1026.0 0.0 WSW 3.2 0.0 0.0
04:15 0.4 55.0 1025.9 0.0 W 3.2 0.0 0.0
04:20 0.5 54.0 1025.9 0.0 W 3.2 0.0 0.0
04:25 0.7 54.0 1025.9 1.6 W 1.6 0.0 0.0
04:30 0.6 55.0 1025.9 0.0 W 1.6 0.0 0.0
04:35 0.4 54.0 1026.0 0.0 W 1.6 0.0 0.0
04:40 0.3 53.0 1026.2 0.0 W 1.6 0.0 0.0
04:45 0.2 54.0 1026.2 0.0 W 1.6 0.0 0.0
04:50 0.1 55.0 1026.4 0.0 W 1.6 0.0 0.0
04:55 0.0 56.0 1026.3 1.6 W 3.2 0.0 0.0
05:00 -0.2 53.0 1026.2 0.0 W 3.2 0.0 0.0
05:05 -0.2 54.0 1026.5 1.6 W 3.2 0.0 0.0
05:05 -0.2 54.0 1026.3 0.0 W 3.2 0.0 0.0
05:15 0.2 54.0 1026.5 3.2 W 3.2 0.0 0.0
05:20 0.1 51.0 1026.5 0.0 W 3.2 0.0 0.0
05:25 0.3 52.0 1026.6 0.0 W 1.6 0.0 0.0
05:30 0.3 50.0 1026.4 0.0 W 0.0 0.0 0.0
05:35 0.3 51.0 1026.3 0.0 W 1.6 0.0 0.0
05:40 0.4 49.0 1026.2 0.0 W 1.6 0.0 0.0
05:45 0.4 51.0 1026.3 1.6 W 1.6 0.0 0.0
05:50 0.2 51.0 1026.4 0.0 W 1.6 0.0 0.0
05:55 -0.1 51.0 1026.6 0.0 W 1.6 0.0 0.0
06:00 -0.2 51.0 1026.6 0.0 W 1.6 0.0 0.0
06:05 -0.3 52.0 1026.6 0.0 W 1.6 0.0 0.0
06:05 -0.3 51.0 1026.7 0.0 W 1.6 0.0 0.0
06:15 0.2 50.0 1026.7 1.6 NW 4.8 0.0 0.0
06:20 0.4 49.0 1026.8 1.6 NW 4.8 0.0 0.0
06:25 0.5 49.0 1026.6 0.0 NW 3.2 0.0 0.0
06:30 0.4 48.0 1026.4 1.6 NW 1.6 0.0 0.0
06:35 0.3 46.0 1026.3 1.6 NW 1.6 0.0 0.0
06:40 0.6 49.0 1026.2 1.6 NW 3.2 0.0 0.0
06:45 0.5 47.0 1026.2 0.0 NW 3.2 0.0 5.0
06:50 0.6 48.0 1026.1 0.0 NW 1.6 0.0 7.0
06:55 0.7 44.0 1026.0 1.6 NW 3.2 0.0 9.0
07:00 1.0 44.0 1026.0 1.6 NNW 4.8 0.0 11.0
07:05 1.1 47.0 1026.0 1.6 NNW 4.8 0.0 12.0
07:05 1.1 47.0 1025.9 1.6 NNW 3.2 0.0 12.0
07:15 0.9 44.0 1025.9 1.6 NNW 3.2 0.0 14.0
07:20 1.1 46.0 1026.0 1.6 NW 3.2 0.0 16.0
07:25 0.9 46.0 1026.1 0.0 NW 3.2 0.0 16.0
07:30 1.1 44.0 1026.1 0.0 NW 1.6 0.0 18.0
07:35 1.2 43.0 1026.1 0.0 NW 1.6 0.0 19.0
07:40 1.4 42.0 1026.1 1.6 NW 1.6 0.0 90.0
07:45 2.3 39.0 1026.3 3.2 NW 3.2 0.0 134.0
07:50 3.5 41.0 1026.1 3.2 SE 3.2 0.0 158.0
07:55 4.4 37.0 1026.2 0.0 SE 4.8 0.0 178.0
08:00 5.2 36.0 1026.0 0.0 SE 3.2 0.0 197.0
08:05 5.9 38.0 1026.1 0.0 SE 0.0 0.0 176.0
08:05 6.1 37.0 1026.1 0.0 SE 0.0 0.0 214.0
08:15 7.2 37.0 1026.1 1.6 SE 3.2 0.0 258.0
08:20 7.7 42.0 1026.0 0.0 SE 3.2 0.0 209.0
08:25 8.1 38.0 1026.3 1.6 SE 3.2 0.0 297.0
08:30 8.1 36.0 1026.3 1.6 SE 3.2 0.0 311.0
08:35 8.1 35.0 1026.3 0.0 SE 3.2 0.0 246.0
08:40 8.3 34.0 1026.4 0.0 SE 3.2 0.0 276.0
08:45 8.6 32.0 1026.5 1.6 SE 4.8 0.0 246.0
08:50 8.7 30.0 1026.5 0.0 SE 4.8 0.0 251.0
08:55 8.7 34.0 1026.5 1.6 ESE 4.8 0.0 394.0
09:00 8.8 36.0 1026.4 1.6 ESE 3.2 0.0 410.0
09:05 9.1 33.0 1026.7 3.2 E 4.8 0.0 424.0
Màxima 11.1 68.0 1028.1 3.2 E 4.8 0.0 424.0
Mínima -0.3 30.0 1025.9
Total 0.0